Weather in Jacksonville

United States     30°16′44″N   81°24′11″W
temp.,
°C
wind,
m/s
gust,
m/s
humid.,
%
clouds,
%
prec.,
mm/h
press.,
hPa
HPBL,
m
23 may, mon
mon2323:00+22n3693100 10.8 1022141
02:00+24se3995100 11.2 1020366
05:00+24sse2997100 0.0 1020389
08:00+24sse3892100 0.0 1020444
11:00+30sse3555100 0.0 10201349
14:00+33se454596 0.0 10181892
17:00+27ese5967100 0.1 1016459
20:00+26se41072100 0.1 1017490
24 may, tue
tue2423:00+24se388063 0.2 1018373
02:00+23s28858 0.3 1017311
05:00+22sse27895 0.0 1016236
08:00+25s367910 0.0 1018355
11:00+31se335063 0.0 10181316
14:00+32ese5545100 0.0 10171647
17:00+30se675277 0.0 1016783
20:00+26se4107386 0.0 1017544
25 may, wed
wed2523:00+25se41077100 0.1 1018507
02:00+24se158947 0.1 1019342
05:00+23sse2794100 0.0 1018366
08:00+24sse3780100 0.0 1019551
11:00+29se465115 0.0 10191394
14:00+31ese574516 0.0 10191495
17:00+29ese5750100 0.0 10181270
20:00+26ese41077100 0.0 1019755
26 may, thu
thu2623:00+25se4982100 0.0 1019702
02:00+24sse498591 0.5 1019640
05:00+23sse3787100 0.0 1019478
08:00+25sse3781100 0.0 1020698
11:00+28se4859100 0.0 10201186
14:00+31se684789 0.0 10181827
17:00+30se675154 0.0 10171114
20:00+26se511725 0.0 1016658
27 may, fri
fri2723:00+25sse410796 0.0 1017550
02:00+24sse3108572 0.1 1016534
05:00+23s31087100 0.2 1015499
08:00+24s3980100 0.2 1016495
11:00+29ssw4656100 0.0 10161238
14:00+30sw465099 0.2 10141469
17:00+30s6957100 1.8 10111388
20:00+23sse38895 5.5 1012250